TimeEST,TemperatureF,Dew PointF,Humidity,Sea Level PressureIn,VisibilityMPH,Wind Direction,Wind SpeedMPH,Gust SpeedMPH,PrecipitationIn,Events,Conditions,WindDirDegrees,DateUTC
12:51 AM,62.1,34.0,35,30.12,10.0,South,13.8,-,N/A,,Overcast,170,2012-11-12 05:51:00
1:51 AM,62.1,39.0,43,30.12,10.0,South,11.5,-,N/A,,Mostly Cloudy,170,2012-11-12 06:51:00
2:51 AM,60.8,41.0,48,30.12,10.0,South,10.4,-,N/A,,Mostly Cloudy,170,2012-11-12 07:51:00
3:51 AM,60.1,42.1,51,30.09,10.0,SSE,13.8,-,N/A,,Mostly Cloudy,150,2012-11-12 08:51:00
4:51 AM,62.1,44.1,52,30.06,10.0,SSE,18.4,25.3,N/A,,Mostly Cloudy,150,2012-11-12 09:51:00
5:51 AM,62.6,46.4,55,30.05,10.0,SSE,19.6,-,N/A,,Overcast,150,2012-11-12 10:51:00
6:51 AM,62.6,46.4,55,30.07,10.0,South,20.7,26.5,N/A,,Overcast,170,2012-11-12 11:51:00
7:51 AM,61.0,48.9,64,30.07,10.0,South,11.5,19.6,0.00,Rain,Light Rain,180,2012-11-12 12:51:00
8:51 AM,57.0,53.1,87,30.07,4.0,South,18.4,25.3,0.13,Rain,Rain,170,2012-11-12 13:51:00
9:51 AM,57.9,53.1,84,30.05,6.0,South,18.4,34.5,0.10,Rain,Rain,180,2012-11-12 14:51:00
10:51 AM,57.9,54.0,87,30.03,4.0,South,27.6,35.7,0.07,Rain,Rain,170,2012-11-12 15:51:00
11:15 AM,59.0,53.6,82,30.03,10.0,South,24.2,35.7,0.02,Rain,Light Rain,180,2012-11-12 16:15:00
11:51 AM,53.6,51.8,94,30.05,5.0,West,13.8,-,N/A,Rain,Rain,280,2012-11-12 16:51:00
11:58 AM,53.6,51.8,94,30.05,5.0,West,13.8,-,0.01,Rain,Rain,280,2012-11-12 16:58:00
12:31 PM,51.8,51.8,100,30.06,2.0,WNW,15.0,-,0.03,Rain,Light Rain,290,2012-11-12 17:31:00
12:51 PM,50.0,48.9,96,30.07,2.0,WNW,9.2,20.7,0.06,Rain,Light Rain,290,2012-11-12 17:51:00
12:58 PM,50.0,48.2,94,30.07,2.0,West,15.0,-,0.00,Rain,Light Rain,280,2012-11-12 17:58:00
1:28 PM,46.4,44.6,93,30.09,2.0,WNW,16.1,24.2,0.02,Rain,Light Rain,290,2012-11-12 18:28:00
1:51 PM,46.9,45.0,93,30.10,2.0,WNW,16.1,-,0.05,Rain,Rain,290,2012-11-12 18:51:00
2:03 PM,46.4,44.6,93,30.09,5.0,WNW,12.7,-,0.03,Rain,Rain,290,2012-11-12 19:03:00
2:51 PM,44.1,42.1,93,30.13,5.0,West,17.3,-,0.06,Rain,Rain,280,2012-11-12 19:51:00
3:39 PM,42.8,39.2,87,30.15,6.0,WNW,12.7,-,0.05,Rain,Light Rain,290,2012-11-12 20:39:00
3:51 PM,42.1,39.0,89,30.16,6.0,WNW,12.7,-,0.06,Rain,Light Rain,290,2012-11-12 20:51:00
4:32 PM,39.2,37.4,93,30.20,10.0,West,23.0,28.8,0.01,,Overcast,280,2012-11-12 21:32:00
4:51 PM,39.0,34.0,82,30.23,10.0,West,17.3,-,0.01,,Overcast,270,2012-11-12 21:51:00
5:04 PM,37.4,33.8,87,30.21,10.0,West,15.0,21.9,N/A,,Overcast,280,2012-11-12 22:04:00
5:51 PM,39.0,35.1,86,30.24,10.0,West,12.7,-,N/A,,Mostly Cloudy,260,2012-11-12 22:51:00
6:51 PM,37.9,33.1,83,30.27,10.0,West,12.7,-,N/A,,Scattered Clouds,260,2012-11-12 23:51:00
7:51 PM,37.0,30.0,76,30.29,10.0,WSW,10.4,-,N/A,,Clear,250,2012-11-13 00:51:00
8:51 PM,36.0,30.9,82,30.33,10.0,WSW,12.7,-,N/A,,Clear,240,2012-11-13 01:51:00
9:51 PM,35.1,30.0,82,30.35,10.0,WSW,9.2,-,N/A,,Clear,240,2012-11-13 02:51:00
10:51 PM,34.0,28.9,82,30.38,10.0,West,10.4,-,N/A,,Clear,270,2012-11-13 03:51:00
11:51 PM,34.0,27.0,75,30.39,10.0,West,8.1,-,N/A,,Clear,270,2012-11-13 04:51:00